User: anonymous   Login
Location: ????????
(54.8751°N, 38.5756°E)
Time: 16:30:00
(UTC+00:00)
Language:

Cosmos 1371 Rocket - Orbit

View from above orbital plane
View from above orbital plane
View from above satellite
View from above satellite

Ground track
Ground track

The orbit data is extracted from the following two-line orbital elements,

1 13242U 82051B   24170.83683550  .00000308  00000-0  11313-3 0  9993
2 13242  74.0440 337.3065 0025462 269.5701  90.2534 14.36674011200636
Epoch (UTC): 18 June 2024 20:05:02
Eccentricity: 0.0025462
inclination: 74.0440°
perigee height: 751 km
apogee height: 788 km
right ascension of ascending node: 337.3065°
argument of perigee: 269.5701°
revolutions per day: 14.36674011
mean anomaly at epoch: 90.2534°
orbit number at epoch: 20063

The dashed part of the orbit path shows where the satellite is in the earth's shadow,  

DLR